Location: Sevilla
(37.3933°N, 5.9839°W)
Time: 04:37:48
(UTC+02:00)

Transit 2A - Pass Details

Date: 28 June 2024
Orbit: 591 x 960 km, 66.7° (Epoch: 15 July)

Event Time Altitude Azimuth Distance (km) Brightness Sun altitude
Rises 17:10:23 0° 252° (WSW) 3,069 9.7 52.4°
Reaches altitude 10° 17:13:20 10° 271° (W) 2,224 9.2 51.9°
Maximum altitude 17:16:48 18° 315° (NW) 1,813 8.6 51.2°
Drops below altitude 10° 17:20:31 10° 357° (N) 2,404 8.7 50.4°
Sets 17:23:53 0° 16° (NNE) 3,418 9.2 49.8°
